This is the latest recevied weather packets stored in our database for station/object KD2SIG. If no packets are shown the sender has not sent any weather packets the latest 10 day(s).
| Time | Temp. | Humidity | Pressure | Rain* | Wind** | Luminosity | Snow |
|---|---|---|---|---|---|---|---|
| 1777832043 | 11.11° C | 38% | 1011.7 hPa | 0 mm | - | 720 W/m² | - |
| 1777831739 | 11.11° C | 39% | 1011.7 hPa | 0 mm | - | 722 W/m² | - |
| 1777831437 | 11.11° C | 39% | 1011.8 hPa | 0 mm | - | 728 W/m² | - |
| 1777831133 | 10.56° C | 41% | 1011.6 hPa | 0 mm | - | 720 W/m² | - |
| 1777830831 | 10.56° C | 40% | 1011.6 hPa | 0 mm | - | 711 W/m² | - |
| 1777830527 | 11.11° C | 41% | 1011.8 hPa | 0 mm | - | 716 W/m² | - |
| 1777830226 | 11.11° C | 42% | 1011.9 hPa | 0 mm | - | 721 W/m² | - |
| 1777829925 | 10.56° C | 41% | 1011.9 hPa | 0 mm | - | 722 W/m² | - |
| 1777829622 | 10.56° C | 44% | 1011.9 hPa | 0 mm | - | 727 W/m² | - |
| 1777829319 | 10.56° C | 46% | 1012.1 hPa | 0 mm | - | 745 W/m² | - |
| 1777829017 | 10° C | 45% | 1011.8 hPa | 0 mm | - | 733 W/m² | - |
| 1777828712 | 10.56° C | 42% | 1012 hPa | 0 mm | - | 724 W/m² | - |
| 1777828409 | 10.56° C | 45% | 1012 hPa | 0 mm | - | 715 W/m² | - |
| 1777828106 | 10° C | 47% | 1012.1 hPa | 0 mm | - | 725 W/m² | - |
| 1777827803 | 10.56° C | 46% | 1012.3 hPa | 0 mm | - | 726 W/m² | - |
| 1777827500 | 10.56° C | 44% | 1012.3 hPa | 0 mm | - | 727 W/m² | - |
| 1777827198 | 10.56° C | 45% | 1012.6 hPa | 0 mm | - | 730 W/m² | - |
| 1777826894 | 10° C | 46% | 1012.4 hPa | 0 mm | - | 716 W/m² | - |
| 1777826591 | 10° C | 46% | 1012.5 hPa | 0 mm | - | 729 W/m² | - |
| 1777826287 | 10° C | 45% | 1012.7 hPa | 0 mm | - | 732 W/m² | - |
| 1777825985 | 9.44° C | 44% | 1013 hPa | 0 mm | - | 726 W/m² | - |
| 1777825681 | 10° C | 46% | 1012.9 hPa | 0 mm | - | 723 W/m² | - |
| 1777825380 | 10° C | 44% | 1012.8 hPa | 0 mm | - | 715 W/m² | - |
| 1777825076 | 8.89° C | 45% | 1013 hPa | 0 mm | - | 713 W/m² | - |
| 1777824772 | 8.89° C | 43% | 1013 hPa | 0 mm | - | 692 W/m² | - |
* Rain latest hour (hover to see other rain measurements)
** Current wind speed in m/s (hover to see current wind gust speed)